Other Public Products
Issued by NWS Charleston, SC

Current Version | Previous Version | Graphics & Text | Print | Product List | Glossary On
Versions: 1 2 3 4 5 6 7 8 9 10 11 12 13 14 15 16 17 18 19 20 21 22 23 24 25 26 27 28 29 30 31 32 33 34 35 36 37 38 39 40 41 42 43 44 45 46 47 48 49 50
000
FPUS82 KCHS 231212
OPUCHS

TEST...KCHS/KSAV Gateway Observations...TEST
National Weather Service Charleston SC
800 AM EDT FRI JUN 23 2017

NOTE: "fair" indicates few or no clouds below 12,000 feet with no
significant weather and/or obstructions to visibility.

SCZ050-WAZ558-NCZ071-TXZ119-213-PAZ071-DCZ001-FLZ074-172-MI076-
NYZ176-178-MAZ016-IL014-TNZ027-NJZ106-GAZ044-MD014-231300-

...Gateway Observations for Charleston International...

CITY           SKY/WX    TMP DP  RH WIND       PRES   REMARKS
Chas Airport   PTSUNNY   79  75  87 S8        30.04S
6HR MIN TEMP:  76; 6HR MAX TEMP:  79;

Seattle        CLEAR     57  47  69 NE6       30.22F
6HR MIN TEMP:  57; 6HR MAX TEMP:  64;

Charlotte      CLOUDY    76  72  87 SW10      30.03R
6HR MIN TEMP:  74; 6HR MAX TEMP:  76; 6HR PCP:  0.04;

Dallas DFW     MOCLDY    79  75  87 S8        29.73R
6HR MIN TEMP:  77; 6HR MAX TEMP:  81;

Dallas Love    MOCLDY    79  74  84 S9        29.74R
6HR MIN TEMP:  78; 6HR MAX TEMP:  83;

Philladelphia  CLOUDY    77  72  84 SW12      29.85S
6HR MIN TEMP:  76; 6HR MAX TEMP:  79;

Wash National  CLOUDY    74  73  97 S15       29.87F
6HR MIN TEMP:  73; 6HR MAX TEMP:  79; 6HR PCP:  0.10;

Baltimore      LGT RAIN  71  71 100 S6        29.86F FOG
6HR MIN TEMP:  71; 6HR MAX TEMP:  76; 6HR PCP:  0.13;

Miami          MOSUNNY   84  74  71 E13       30.03R HX  91
6HR MIN TEMP:  82; 6HR MAX TEMP:  84;

Detroit        LGT RAIN  71  70  96 S10       29.64F FOG
6HR MIN TEMP:  71; 6HR MAX TEMP:  73; 6HR PCP:  0.02;

Newark         CLOUDY    80  72  76 SW10      29.82S
6HR MIN TEMP:  77; 6HR MAX TEMP:  80;

Laguardia      CLOUDY    81  72  74 SW9       29.81F
6HR MIN TEMP:  79; 6HR MAX TEMP:  81;

J F K          PTSUNNY   75  73  93 S8        29.84F
6HR MIN TEMP:  71; 6HR MAX TEMP:  76;

Boston Logan   CLOUDY    71  66  84 S8        29.80F
6HR MIN TEMP:  65; 6HR MAX TEMP:  73;

Ft. Lauderdale MOSUNNY   83  75  77 SE13      30.03R HX  90
6HR MIN TEMP:  79; 6HR MAX TEMP:  83; 6HR PCP: TRACE;

Chicago O`Hare CLOUDY    68  65  90 NW6       29.69R
6HR MIN TEMP:  68; 6HR MAX TEMP:  77; 6HR PCP:  0.71;

Chicago Midway LGT RAIN  69  66  90 W5        29.68R
6HR MIN TEMP:  68; 6HR MAX TEMP:  77;

Houston Bush   PTCLDY    80  76  87 S6        29.79S
6HR MIN TEMP:  80; 6HR MAX TEMP:  81;

Houston Hobby  PTCLDY    81  76  84 S9        29.79R
6HR MIN TEMP:  80; 6HR MAX TEMP:  82;

Nashville      MOSUNNY   78  71  79 S14       29.85S
6HR MIN TEMP:  76; 6HR MAX TEMP:  78;

Atlanta        PTSUNNY   74  72  93 S8        30.02S
6HR MIN TEMP:  72; 6HR MAX TEMP:  74;


$$

GAZ044-118-TXZ119-213-NCZ071-DCZ001-MDZ014-506-PAZ021-071-NJZ106-
NYZ176-178-MAZ106-OHZ011-021-055-MIZ076-KYZ091-ILZ014-INZ047-
MNZ060-ONZ431-231300-

...Gateway Observations for Savannah International...

CITY           SKY/WX    TMP DP  RH WIND       PRES   REMARKS
Savannah Arpt  PTSUNNY   80  73  79 S8        30.05R
6HR MIN TEMP:  77; 6HR MAX TEMP:  80;

Atlanta        PTSUNNY   74  72  93 S8        30.02S
6HR MIN TEMP:  72; 6HR MAX TEMP:  74;

Charlotte      CLOUDY    76  72  87 SW10      30.03R
6HR MIN TEMP:  74; 6HR MAX TEMP:  76; 6HR PCP:  0.04;

Dallas DFW     MOCLDY    79  75  87 S8        29.73R
6HR MIN TEMP:  77; 6HR MAX TEMP:  81;

Houston Bush   PTCLDY    80  76  87 S6        29.79S
6HR MIN TEMP:  80; 6HR MAX TEMP:  81;

Wash National  CLOUDY    74  73  97 S15       29.87F
6HR MIN TEMP:  73; 6HR MAX TEMP:  79; 6HR PCP:  0.10;

Wash Dulles    CLOUDY    72  69  90 S13       29.86F
6HR MIN TEMP:  71; 6HR MAX TEMP:  75; 6HR PCP:  0.15;

Baltimore      LGT RAIN  71  71 100 S6        29.86F FOG
6HR MIN TEMP:  71; 6HR MAX TEMP:  76; 6HR PCP:  0.13;

Philadelphia   CLOUDY    77  72  84 SW12      29.85S
6HR MIN TEMP:  76; 6HR MAX TEMP:  79;

Newark         CLOUDY    80  72  76 SW10      29.82S
6HR MIN TEMP:  77; 6HR MAX TEMP:  80;

Laguardia      CLOUDY    81  72  74 SW9       29.81F
6HR MIN TEMP:  79; 6HR MAX TEMP:  81;

J F K          PTSUNNY   75  73  93 S8        29.84F
6HR MIN TEMP:  71; 6HR MAX TEMP:  76;

Boston         CLOUDY    71  66  84 S8        29.80F
6HR MIN TEMP:  65; 6HR MAX TEMP:  73;

Pittsburg      CLOUDY    69  69 100 SW6       29.79S
6HR MIN TEMP:  68; 6HR MAX TEMP:  74; 6HR PCP:  0.26;

Akron          CLOUDY    71  68  90 SW16      29.74F FOG
6HR MIN TEMP:  70; 6HR MAX TEMP:  74; 6HR PCP:  0.19;

Cleveland      CLOUDY    72  69  90 S12       29.70F
6HR MIN TEMP:  72; 6HR MAX TEMP:  76; 6HR PCP:  0.61;

Cincinnati     CLOUDY    74  73  97 SW13G20   29.77S
6HR MIN TEMP:  72; 6HR MAX TEMP:  74; 6HR PCP:  0.02;

Columbus       LGT RAIN  72  72 100 S10       29.76S
Detroit        LGT RAIN  71  70  96 S10       29.64F FOG
6HR MIN TEMP:  71; 6HR MAX TEMP:  73; 6HR PCP:  0.02;

Chicago O`Hare CLOUDY    68  65  90 NW6       29.69R
6HR MIN TEMP:  68; 6HR MAX TEMP:  77; 6HR PCP:  0.71;

Minneapolis    SUNNY     62  51  67 NW7       29.75R
6HR MIN TEMP:  58; 6HR MAX TEMP:  63;

Indianapolis   CLOUDY    75  73  93 SW12      29.71S
6HR MIN TEMP:  72; 6HR MAX TEMP:  76; 6HR PCP:  0.03;

Toronto Canada SHOWER    68  68 100 E8        29.62  FOG

$$




USA.gov is the U.S. government's official web portal to all federal, state and local government web resources and services.